Location: Banksville Park
(38.5557°N, 75.1182°W)
Time: 03:58:27
(UTC+00:00)

Cosmos 2173 Rocket - Pass Details

Date: 19 September 2020
Orbit: 946 x 999 km, 83.0° (Epoch: 18 October)

Event Time Altitude Azimuth Distance (km) Brightness Sun altitude
Rises 10:06:28 0° 349° (N) 3,701 7.0 -8.5°
Reaches altitude 10° 10:09:00 10° 346° (NNW) 2,755 6.3 -8.0°
Maximum altitude 10:15:14 63° 267° (W) 1,100 4.1 -6.8°
Drops below altitude 10° 10:21:29 10° 188° (S) 2,758 6.2 -5.6°
Sets 10:24:01 0° 185° (S) 3,705 6.9 -5.1°
